This is the latest recevied weather packets stored in our database for station/object N9JXN-13. If no packets are shown the sender has not sent any weather packets the latest 10 day(s).
| Time | Temp. | Humidity | Pressure | Rain* | Wind** | Luminosity | Snow |
|---|---|---|---|---|---|---|---|
| 1778009663 | 12.78° C | 49% | 1009.1 hPa | 0 mm | - | 139 W/m² | - |
| 1778009063 | 13.33° C | 48% | 1009.1 hPa | 0 mm | - | 160 W/m² | - |
| 1778008463 | 13.33° C | 48% | 1009.1 hPa | 0 mm | - | 167 W/m² | - |
| 1778008163 | 13.33° C | 46% | 1009.1 hPa | 0 mm | - | 174 W/m² | - |
| 1778006663 | 13.33° C | 48% | 1009.2 hPa | 0 mm | - | 202 W/m² | - |
| 1778006062 | 13.89° C | 49% | 1009.2 hPa | 0 mm | - | 234 W/m² | - |
| 1778004563 | 13.33° C | 48% | 1009.1 hPa | 0 mm | - | 248 W/m² | - |
| 1778002463 | 12.78° C | 49% | 1009.1 hPa | 0 mm | - | 279 W/m² | - |
| 1778001862 | 12.78° C | 57% | 1009 hPa | 0 mm | - | 244 W/m² | - |
| 1778001563 | 12.78° C | 59% | 1009 hPa | 0 mm | - | 248 W/m² | - |
| 1778000362 | 12.78° C | 57% | 1009 hPa | 0 mm | - | 260 W/m² | - |
| 1778000063 | 12.78° C | 56% | 1008.8 hPa | 0 mm | - | 274 W/m² | - |
| 1777997963 | 13.33° C | 56% | 1008.8 hPa | 0 mm | - | 758 W/m² | - |
| 1777996462 | 12.78° C | 55% | 1008.7 hPa | 0 mm | - | 483 W/m² | - |
| 1777996163 | 12.22° C | 55% | 1008.6 hPa | 0 mm | - | 889 W/m² | - |
| 1777994963 | 11.67° C | 62% | 1008.6 hPa | 0 mm | - | 304 W/m² | - |
| 1777993762 | 11.11° C | 76% | 1008.3 hPa | 0 mm | - | 561 W/m² | - |
| 1777992863 | 10° C | 83% | 1008.5 hPa | 0 mm | - | 891 W/m² | - |
| 1777991362 | 8.33° C | 91% | 1008.7 hPa | 0 mm | - | 199 W/m² | - |
| 1777989562 | 7.78° C | 91% | 1008.8 hPa | 0.51 mm | - | 105 W/m² | - |
| 1777985963 | 7.78° C | 87% | 1009.4 hPa | 0.25 mm | - | 21 W/m² | - |
| 1777985063 | 7.78° C | 85% | 1008.7 hPa | 0.25 mm | - | 12 W/m² | - |
| 1777984762 | 7.78° C | 84% | 1008.7 hPa | 0.25 mm | - | 11 W/m² | - |
| 1777981763 | 9.44° C | 83% | 1007.9 hPa | 0 mm | - | 12 W/m² | - |
| 1777981462 | 9.44° C | 83% | 1007.9 hPa | 0 mm | - | 9 W/m² | - |
* Rain latest hour (hover to see other rain measurements)
** Current wind speed in m/s (hover to see current wind gust speed)